| time (UTC) | temp C | wind direction | speed KPH | gust KPH | rain 1hr cm | rain 24hr cm | rain mn cm | humidity % | barometer mb |
| 20260904134121 | 18 | 355 | 0.0 | 0.0 | 0.00 | 0.00 | 0.00 | 91 | 1013.1 |
| 20260904132121 | 18 | 350 | 0.0 | 0.0 | 0.00 | 0.00 | 0.00 | 93 | 1013.1 |
| 20260904131121 | 18 | 302 | 0.0 | 0.0 | 0.00 | 0.00 | 0.00 | 93 | 1013.0 |
| 20260904130621 | 18 | 0 | 0.0 | 0.0 | 0.00 | 0.00 | 0.00 | 93 | 1013.0 |
| 20260904130122 | 17 | 5 | 0.0 | 0.0 | 0.00 | 0.00 | 0.00 | 94 | 1012.9 |
| 20260904125617 | 17 | 19 | 0.0 | 0.0 | 0.00 | 0.00 | 0.00 | 94 | 1013.0 |
| 20260904125118 | 17 | 339 | 0.0 | 0.0 | 0.00 | 0.00 | 0.00 | 95 | 1013.0 |
| 20260904124617 | 17 | 12 | 0.0 | 0.0 | 0.00 | 0.00 | 0.00 | 95 | 1013.1 |
| 20260904124117 | 17 | 0 | 0.0 | 0.0 | 0.00 | 0.00 | 0.00 | 95 | 1013.2 |
| 20260904123618 | 17 | 340 | 0.0 | 0.0 | 0.00 | 0.00 | 0.00 | 95 | 1013.1 |
| 20260904123117 | 17 | 332 | 0.0 | 0.0 | 0.00 | 0.00 | 0.00 | 96 | 1013.0 |
| 20260904122618 | 17 | 10 | 0.0 | 0.0 | 0.00 | 0.00 | 0.00 | 96 | 1012.9 |
| 20260904122118 | 17 | 330 | 0.0 | 0.0 | 0.00 | 0.00 | 0.00 | 96 | 1013.1 |
| 20260904121617 | 17 | 355 | 0.0 | 0.0 | 0.00 | 0.00 | 0.00 | 96 | 1013.0 |
| 20260904121113 | 16 | 355 | 0.0 | 0.0 | 0.00 | 0.00 | 0.00 | 96 | 1013.0 |
| 20260904120613 | 16 | 355 | 0.0 | 0.0 | 0.00 | 0.00 | 0.00 | 96 | 1013.0 |
| 20260904120114 | 16 | 355 | 0.0 | 0.0 | 0.00 | 0.00 | 0.00 | 96 | 1013.0 |
| 20260904115612 | 16 | 17 | 0.0 | 0.0 | 0.00 | 0.00 | 0.00 | 96 | 1013.0 |
| 20260904115112 | 16 | 18 | 0.0 | 0.0 | 0.00 | 0.00 | 0.00 | 96 | 1013.0 |
| 20260904114110 | 16 | 0 | 0.0 | 0.0 | 0.00 | 0.00 | 0.00 | 96 | 1012.9 |
| 20260904113607 | 16 | 15 | 0.0 | 0.0 | 0.00 | 0.00 | 0.00 | 96 | 1012.7 |
| 20260904113106 | 16 | 5 | 0.0 | 0.0 | 0.00 | 0.00 | 0.00 | 96 | 1012.8 |
| 20260904112608 | 16 | 0 | 0.0 | 0.0 | 0.00 | 0.00 | 0.00 | 96 | 1012.8 |
| 20260904112105 | 16 | 355 | 0.0 | 0.0 | 0.00 | 0.00 | 0.00 | 96 | 1012.8 |
| 20260904111601 | 16 | 355 | 0.0 | 0.0 | 0.00 | 0.00 | 0.00 | 96 | 1012.8 |
| 20260904111059 | 16 | 355 | 0.0 | 0.0 | 0.00 | 0.00 | 0.00 | 96 | 1012.7 |
| 20260904110559 | 16 | 355 | 0.0 | 0.0 | 0.00 | 0.00 | 0.00 | 96 | 1012.7 |
| 20260904105549 | -17 | 355 | 0.0 | 0.0 | 0.00 | 0.00 | 0.00 | 1012.6 | |
| 20260904105023 | -17 | 0.0 | 0.0 | 0.00 | 0.00 | 0.00 | 1012.6 | ||
| 20260904104521 | -17 | 0.0 | 0.0 | 0.00 | 0.00 | 0.00 | 1012.5 | ||
| 20260904102325 | -17 | 0.0 | 0.0 | 0.00 | 0.00 | 0.00 | 1012.1 | ||
| 20260904101821 | -17 | 0.0 | 0.0 | 0.00 | 0.00 | 0.00 | 1012.1 | ||
| 20260904101225 | -17 | 0.0 | 0.0 | 0.00 | 0.00 | 0.00 | 1012.1 | ||
| 20260904100215 | -17 | 0.0 | 0.0 | 0.00 | 0.00 | 0.00 | 1012.1 | ||
| 20260904095713 | -17 | 0.0 | 0.0 | 0.00 | 0.00 | 0.00 | 1012.1 | ||
| 20260904094616 | -17 | 0.0 | 0.0 | 0.00 | 0.00 | 0.00 | 1011.9 | ||
| 20260904094020 | -17 | 0.0 | 0.0 | 0.00 | 0.00 | 0.00 | 1011.9 | ||
| 20260904093519 | -17 | 0.0 | 0.0 | 0.00 | 0.00 | 0.00 | 1011.8 | ||
| 20260904093009 | -17 | 0.0 | 0.0 | 0.00 | 0.00 | 0.00 | 1011.8 | ||
| 20260904092423 | -17 | 0.0 | 0.0 | 0.00 | 0.00 | 0.00 | 1011.8 | ||
| 20260904091921 | -17 | 0.0 | 0.0 | 0.00 | 0.00 | 0.00 | 1011.8 | ||
| 20260904091412 | -17 | 0.0 | 0.0 | 0.00 | 0.00 | 0.00 | 1011.7 | ||
| 20260904090824 | -17 | 0.0 | 0.0 | 0.00 | 0.00 | 0.00 | 1011.7 | ||
| 20260904090317 | -17 | 0.0 | 0.0 | 0.00 | 0.00 | 0.00 | 1011.6 | ||
| 20260904085215 | -17 | 0.0 | 0.0 | 0.00 | 0.00 | 0.00 | 1011.6 | ||
| 20260904084628 | -17 | 0.0 | 0.0 | 0.00 | 0.00 | 0.00 | 1011.6 | ||
| 20260904084108 | -17 | 0.0 | 0.0 | 0.00 | 0.00 | 0.00 | 1011.5 | ||
| 20260904083525 | -17 | 0.0 | 0.0 | 0.00 | 0.00 | 0.00 | 1011.5 | ||
| 20260904083014 | -17 | 0.0 | 0.0 | 0.00 | 0.00 | 0.00 | 1011.5 | ||
| 20260904081905 | -17 | 0.0 | 0.0 | 0.00 | 0.00 | 0.00 | 1011.5 | ||
| 20260904081316 | 16 | 0.0 | 0.0 | 0.00 | 0.00 | 0.00 | 96 | 1011.5 | |
| 20260904080725 | 16 | 9 | 0.0 | 0.0 | 0.00 | 0.00 | 0.00 | 96 | 1011.5 |
| 20260904080220 | 16 | 9 | 0.0 | 0.0 | 0.00 | 0.00 | 0.00 | 96 | 1011.4 |
| 20260904075714 | 16 | 9 | 0.0 | 0.0 | 0.00 | 0.00 | 0.00 | 96 | 1011.4 |
| 20260904075208 | 16 | 5 | 0.0 | 0.0 | 0.00 | 0.00 | 0.00 | 96 | 1011.4 |
| 20260904074703 | 16 | 355 | 0.0 | 0.0 | 0.00 | 0.00 | 0.00 | 96 | 1011.4 |
| 20260904074157 | 16 | 0 | 0.0 | 0.0 | 0.00 | 0.00 | 0.00 | 96 | 1011.5 |
| 20260904073144 | 16 | 348 | 0.0 | 0.0 | 0.00 | 0.00 | 0.00 | 95 | 1011.5 |
| 20260904072638 | 16 | 5 | 0.0 | 0.0 | 0.00 | 0.00 | 0.00 | 95 | 1011.6 |
| 20260904071627 | 16 | 10 | 0.0 | 0.0 | 0.00 | 0.00 | 0.00 | 95 | 1011.6 |
| 20260904071120 | 16 | 0 | 0.0 | 0.0 | 0.00 | 0.00 | 0.00 | 95 | 1011.6 |
| 20260904070615 | 16 | 0 | 0.0 | 0.0 | 0.00 | 0.00 | 0.00 | 95 | 1011.6 |
| 20260904065603 | 16 | 0 | 0.0 | 0.0 | 0.00 | 0.00 | 0.00 | 95 | 1011.6 |
| 20260904065055 | 16 | 0 | 0.0 | 0.0 | 0.00 | 0.00 | 0.00 | 95 | 1011.6 |
| 20260904064550 | 17 | 0 | 0.0 | 0.0 | 0.00 | 0.00 | 0.00 | 95 | 1011.7 |
| 20260904064044 | 17 | 0 | 0.0 | 0.0 | 0.00 | 0.00 | 0.00 | 95 | 1011.7 |
| 20260904063538 | 17 | 0 | 0.0 | 0.0 | 0.00 | 0.00 | 0.00 | 95 | 1011.7 |
| 20260904063031 | 17 | 0 | 0.0 | 0.0 | 0.00 | 0.00 | 0.00 | 95 | 1011.7 |
| 20260904062528 | 17 | 0 | 0.0 | 0.0 | 0.00 | 0.00 | 0.00 | 95 | 1011.7 |
| 20260904062020 | 17 | 0 | 0.0 | 0.0 | 0.00 | 0.00 | 0.00 | 95 | 1011.7 |
| 20260904061514 | 17 | 0 | 0.0 | 0.0 | 0.00 | 0.00 | 0.00 | 95 | 1011.7 |
| 20260904061008 | 17 | 0 | 0.0 | 0.0 | 0.00 | 0.00 | 0.00 | 95 | 1011.6 |
| 20260904060502 | 17 | 0 | 0.0 | 0.0 | 0.00 | 0.00 | 0.00 | 95 | 1011.6 |
| 20260904055955 | 17 | 355 | 0.0 | 0.0 | 0.00 | 0.00 | 0.00 | 95 | 1011.6 |
| 20260904055450 | 17 | 9 | 0.0 | 0.0 | 0.00 | 0.00 | 0.00 | 95 | 1011.7 |
| 20260904054945 | 17 | 0 | 0.0 | 0.0 | 0.00 | 0.00 | 0.00 | 95 | 1011.7 |
| 20260904054438 | 17 | 0 | 0.0 | 0.0 | 0.00 | 0.00 | 0.00 | 95 | 1011.8 |
| 20260904053933 | 17 | 0 | 0.0 | 0.0 | 0.00 | 0.00 | 0.00 | 95 | 1011.8 |
| 20260904053426 | 17 | 0 | 0.0 | 0.0 | 0.00 | 0.00 | 0.00 | 95 | 1011.7 |
| 20260904052921 | 17 | 0 | 0.0 | 0.0 | 0.00 | 0.00 | 0.00 | 95 | 1011.7 |
| 20260904052414 | 17 | 0 | 0.0 | 0.0 | 0.00 | 0.00 | 0.00 | 95 | 1011.7 |
| 20260904051908 | 17 | 0 | 0.0 | 0.0 | 0.00 | 0.00 | 0.00 | 95 | 1011.6 |
| 20260904051402 | 17 | 0 | 0.0 | 0.0 | 0.00 | 0.00 | 0.00 | 95 | 1011.7 |
| 20260904050402 | 17 | 0 | 0.0 | 0.0 | 0.00 | 0.00 | 0.00 | 95 | 1011.7 |
| 20260904045400 | 17 | 0 | 0.0 | 0.0 | 0.00 | 0.00 | 0.00 | 95 | 1011.7 |
| 20260904044901 | 17 | 0 | 0.0 | 0.0 | 0.00 | 0.00 | 0.00 | 95 | 1011.7 |
| 20260904044400 | 18 | 0 | 0.0 | 0.0 | 0.00 | 0.00 | 0.00 | 95 | 1011.7 |
| 20260904043858 | 18 | 0 | 0.0 | 0.0 | 0.00 | 0.00 | 0.00 | 94 | 1011.8 |
| 20260904043356 | 18 | 0 | 0.0 | 0.0 | 0.00 | 0.00 | 0.00 | 95 | 1011.7 |
| 20260904042856 | 18 | 0 | 0.0 | 0.0 | 0.00 | 0.00 | 0.00 | 95 | 1011.6 |
| 20260904042357 | 18 | 0 | 0.0 | 0.0 | 0.00 | 0.00 | 0.00 | 95 | 1011.6 |
| 20260904041856 | 18 | 0 | 0.0 | 0.0 | 0.00 | 0.00 | 0.00 | 95 | 1011.7 |
| 20260904041356 | 18 | 0 | 0.0 | 0.0 | 0.00 | 0.00 | 0.00 | 95 | 1011.6 |
| 20260904040854 | 18 | 0 | 0.0 | 0.0 | 0.00 | 0.00 | 0.00 | 94 | 1011.6 |
| 20260904035855 | 18 | 0 | 0.0 | 0.0 | 0.00 | 0.00 | 0.00 | 94 | 1011.6 |
| 20260904035352 | 18 | 0 | 0.0 | 0.0 | 0.00 | 0.00 | 0.00 | 94 | 1011.6 |
| 20260904034854 | 18 | 5 | 0.0 | 0.0 | 0.00 | 0.00 | 0.00 | 94 | 1011.7 |
| 20260904034348 | 18 | 5 | 0.0 | 0.0 | 0.00 | 0.00 | 0.00 | 94 | 1011.7 |
| 20260904033346 | 18 | 5 | 0.0 | 0.0 | 0.00 | 0.00 | 0.00 | 94 | 1011.6 |
| 20260904032345 | 18 | 5 | 0.0 | 0.0 | 0.00 | 0.00 | 0.00 | 94 | 1011.6 |
| 20260904031344 | 18 | 5 | 0.0 | 0.0 | 0.00 | 0.00 | 0.00 | 94 | 1011.6 |
| 20260904030845 | 18 | 5 | 0.0 | 0.0 | 0.00 | 0.00 | 0.00 | 94 | 1011.6 |
| 20260904030344 | 18 | 9 | 0.0 | 0.0 | 0.00 | 0.00 | 0.00 | 94 | 1011.6 |
| 20260904025843 | 18 | 9 | 0.0 | 0.0 | 0.00 | 0.00 | 0.00 | 93 | 1011.7 |
| 20260904025340 | 18 | 9 | 0.0 | 0.0 | 0.00 | 0.00 | 0.00 | 93 | 1011.7 |
| 20260904024840 | 19 | 9 | 0.0 | 0.0 | 0.00 | 0.00 | 0.00 | 93 | 1011.7 |
| 20260904024338 | 19 | 9 | 0.0 | 0.0 | 0.00 | 0.00 | 0.00 | 93 | 1011.7 |
| 20260904023838 | 19 | 9 | 0.0 | 0.0 | 0.00 | 0.00 | 0.00 | 92 | 1011.7 |
| 20260904023338 | 19 | 9 | 0.0 | 0.0 | 0.00 | 0.00 | 0.00 | 92 | 1011.6 |
| 20260904022834 | 19 | 9 | 0.0 | 0.0 | 0.00 | 0.00 | 0.00 | 92 | 1011.6 |
| 20260904022333 | 19 | 9 | 0.0 | 0.0 | 0.00 | 0.00 | 0.00 | 91 | 1011.5 |
| 20260904021834 | 19 | 9 | 0.0 | 0.0 | 0.00 | 0.00 | 0.00 | 91 | 1011.5 |
| 20260904021333 | 19 | 11 | 0.0 | 0.0 | 0.00 | 0.00 | 0.00 | 90 | 1011.5 |
| 20260904020834 | 20 | 230 | 0.0 | 0.0 | 0.00 | 0.00 | 0.00 | 90 | 1011.5 |
| 20260904020334 | 20 | 230 | 0.0 | 0.0 | 0.00 | 0.00 | 0.00 | 90 | 1011.7 |
| 20260904015834 | 20 | 230 | 0.0 | 0.0 | 0.00 | 0.00 | 0.00 | 89 | 1011.7 |
| 20260904015334 | 20 | 230 | 0.0 | 0.0 | 0.00 | 0.00 | 0.00 | 89 | 1011.7 |
| 20260904014835 | 20 | 230 | 0.0 | 0.0 | 0.00 | 0.00 | 0.00 | 88 | 1011.7 |
| 20260904014335 | 20 | 230 | 0.0 | 0.0 | 0.00 | 0.00 | 0.00 | 87 | 1011.7 |
| 20260904013834 | 21 | 230 | 0.0 | 0.0 | 0.00 | 0.00 | 0.00 | 87 | 1011.6 |
| 20260904013334 | 21 | 230 | 0.0 | 0.0 | 0.00 | 0.00 | 0.00 | 86 | 1011.5 |
| 20260904012834 | 21 | 230 | 0.0 | 0.0 | 0.00 | 0.00 | 0.00 | 85 | 1011.7 |
| 20260904012334 | 21 | 230 | 0.0 | 0.0 | 0.00 | 0.00 | 0.00 | 85 | 1011.6 |
| 20260904011334 | 21 | 228 | 0.0 | 3.2 | 0.00 | 0.00 | 0.00 | 84 | 1011.6 |
| 20260904010334 | 22 | 236 | 0.0 | 4.8 | 0.00 | 0.00 | 0.00 | 84 | 1011.5 |
| 20260904005835 | 22 | 221 | 0.0 | 0.0 | 0.00 | 0.00 | 0.00 | 83 | 1011.5 |
| 20260904005334 | 22 | 246 | 1.6 | 9.7 | 0.00 | 0.00 | 0.00 | 83 | 1011.5 |
| 20260904003333 | 22 | 225 | 3.2 | 11.3 | 0.00 | 0.00 | 0.00 | 83 | 1011.3 |
| 20260904002832 | 22 | 217 | 1.6 | 11.3 | 0.00 | 0.00 | 0.00 | 83 | 1011.2 |
| 20260904002333 | 22 | 205 | 0.0 | 11.3 | 0.00 | 0.00 | 0.00 | 83 | 1011.1 |
| 20260904001832 | 22 | 205 | 0.0 | 0.0 | 0.00 | 0.00 | 0.00 | 83 | 1011.0 |
| 20260904001333 | 22 | 197 | 0.0 | 9.7 | 0.00 | 0.00 | 0.00 | 83 | 1011.0 |
| 20260904000832 | 22 | 236 | 0.0 | 9.7 | 0.00 | 0.00 | 0.00 | 83 | 1010.9 |
| 20260904000332 | 22 | 218 | 0.0 | 6.4 | 0.00 | 0.00 | 0.00 | 83 | 1010.9 |
| 20260903235830 | 22 | 219 | 1.6 | 6.4 | 0.00 | 0.00 | 0.00 | 82 | 1010.9 |
| 20260903235330 | 22 | 232 | 1.6 | 6.4 | 0.00 | 0.00 | 0.00 | 82 | 1010.7 |
| 20260903234329 | 23 | 213 | 3.2 | 9.7 | 0.00 | 0.00 | 0.00 | 81 | 1010.7 |
| 20260903233828 | 23 | 212 | 1.6 | 9.7 | 0.00 | 0.00 | 0.00 | 82 | 1010.7 |
| 20260903233328 | 23 | 223 | 0.0 | 6.4 | 0.00 | 0.00 | 0.00 | 81 | 1010.5 |
| 20260903232828 | 23 | 213 | 0.0 | 1.6 | 0.00 | 0.00 | 0.00 | 81 | 1010.5 |
| 20260903232328 | 23 | 217 | 0.0 | 1.6 | 0.00 | 0.00 | 0.00 | 81 | 1010.5 |
| 20260903231828 | 23 | 196 | 0.0 | 1.6 | 0.00 | 0.00 | 0.00 | 80 | 1010.4 |
| 20260903231328 | 23 | 225 | 0.0 | 1.6 | 0.00 | 0.00 | 0.00 | 80 | 1010.4 |
| 20260903230828 | 23 | 219 | 0.0 | 6.4 | 0.00 | 0.00 | 0.00 | 79 | 1010.5 |
| 20260903225824 | 23 | 212 | 0.0 | 4.8 | 0.00 | 0.00 | 0.00 | 79 | 1010.5 |
| 20260903225324 | 23 | 212 | 1.6 | 8.0 | 0.00 | 0.00 | 0.00 | 79 | 1010.5 |
| 20260903224824 | 23 | 202 | 3.2 | 9.7 | 0.00 | 0.00 | 0.00 | 79 | 1010.5 |
| 20260903224324 | 23 | 187 | 1.6 | 9.7 | 0.00 | 0.00 | 0.00 | 78 | 1010.6 |
| 20260903223824 | 24 | 202 | 1.6 | 9.7 | 0.00 | 0.00 | 0.00 | 78 | 1010.7 |
| 20260903223324 | 24 | 193 | 1.6 | 9.7 | 0.00 | 0.00 | 0.00 | 78 | 1010.6 |
| 20260903222824 | 24 | 209 | 1.6 | 9.7 | 0.00 | 0.00 | 0.00 | 77 | 1010.6 |
| 20260903222324 | 24 | 198 | 3.2 | 9.7 | 0.00 | 0.00 | 0.00 | 77 | 1010.6 |
| 20260903221820 | 24 | 184 | 4.8 | 9.7 | 0.00 | 0.00 | 0.00 | 77 | 1010.7 |
| 20260903221321 | 24 | 211 | 4.8 | 9.7 | 0.00 | 0.00 | 0.00 | 77 | 1010.6 |
| 20260903220820 | 24 | 210 | 3.2 | 11.3 | 0.00 | 0.00 | 0.00 | 77 | 1010.7 |
| 20260903220320 | 24 | 205 | 3.2 | 11.3 | 0.00 | 0.00 | 0.00 | 76 | 1010.6 |
| 20260903215820 | 24 | 202 | 4.8 | 11.3 | 0.00 | 0.00 | 0.00 | 76 | 1010.7 |
| 20260903215320 | 24 | 182 | 4.8 | 11.3 | 0.00 | 0.00 | 0.00 | 76 | 1010.7 |
| 20260903214820 | 25 | 211 | 3.2 | 11.3 | 0.00 | 0.00 | 0.00 | 77 | 1010.6 |
| 20260903214320 | 25 | 161 | 3.2 | 8.0 | 0.00 | 0.00 | 0.00 | 76 | 1010.7 |
| 20260903213821 | 25 | 236 | 4.8 | 11.3 | 0.00 | 0.00 | 0.00 | 75 | 1010.7 |
| 20260903213318 | 25 | 200 | 6.4 | 14.5 | 0.00 | 0.00 | 0.00 | 74 | 1010.7 |
| 20260903211820 | 25 | 186 | 6.4 | 12.9 | 0.00 | 0.00 | 0.00 | 75 | 1010.8 |
| 20260903211319 | 25 | 181 | 6.4 | 12.9 | 0.00 | 0.00 | 0.00 | 76 | 1010.8 |
| 20260903210819 | 25 | 178 | 4.8 | 11.3 | 0.00 | 0.00 | 0.00 | 77 | 1010.8 |
| 20260903210318 | 25 | 190 | 6.4 | 12.9 | 0.00 | 0.00 | 0.00 | 76 | 1010.9 |
| 20260903205819 | 25 | 169 | 6.4 | 12.9 | 0.00 | 0.00 | 0.00 | 75 | 1010.9 |
| 20260903205320 | 25 | 183 | 6.4 | 14.5 | 0.00 | 0.00 | 0.00 | 75 | 1011.0 |
| 20260903204817 | 25 | 185 | 6.4 | 14.5 | 0.00 | 0.00 | 0.00 | 75 | 1011.0 |
| 20260903203317 | 25 | 0 | 1.6 | 12.9 | 0.00 | 0.00 | 0.00 | 74 | 1011.1 |
| 20260903202314 | 25 | 177 | 4.8 | 12.9 | 0.00 | 0.00 | 0.00 | 74 | 1011.1 |
| 20260903201812 | 25 | 202 | 4.8 | 14.5 | 0.00 | 0.00 | 0.00 | 72 | 1011.1 |
| 20260903201311 | 25 | 182 | 6.4 | 14.5 | 0.00 | 0.00 | 0.00 | 71 | 1011.2 |
| 20260903200811 | 26 | 220 | 6.4 | 14.5 | 0.00 | 0.00 | 0.00 | 71 | 1011.3 |
| 20260903200310 | 26 | 208 | 1.6 | 14.5 | 0.00 | 0.00 | 0.00 | 65 | 1011.2 |
| 20260903195811 | 26 | 187 | 0.0 | 3.2 | 0.00 | 0.00 | 0.00 | 64 | 1011.2 |
| 20260903195306 | 26 | 325 | 0.0 | 0.0 | 0.00 | 0.00 | 0.00 | 64 | 1011.3 |
| 20260903193301 | 26 | 63 | 1.6 | 12.9 | 0.00 | 0.00 | 0.00 | 59 | 1011.2 |
| 20260903192800 | 27 | 253 | 3.2 | 12.9 | 0.00 | 0.00 | 0.00 | 57 | 1011.1 |
| 20260903192259 | 27 | 117 | 3.2 | 11.3 | 0.00 | 0.00 | 0.00 | 57 | 1011.0 |
| 20260903191753 | 27 | 162 | 3.2 | 12.9 | 0.00 | 0.00 | 0.00 | 56 | 1011.1 |
| 20260903191247 | 28 | 355 | 4.8 | 22.5 | 0.00 | 0.00 | 0.00 | 58 | 1011.1 |
| 20260903190743 | 27 | 51 | 3.2 | 22.5 | 0.00 | 0.00 | 0.00 | 57 | 1011.1 |
| 20260903190245 | 27 | 192 | 1.6 | 11.3 | 0.00 | 0.00 | 0.00 | 57 | 1011.1 |
| 20260903185744 | 27 | 100 | 1.6 | 11.3 | 0.00 | 0.00 | 0.00 | 57 | 1011.1 |
| 20260903185242 | 27 | 60 | 3.2 | 14.5 | 0.00 | 0.00 | 0.00 | 58 | 1011.0 |
| 20260903184740 | 27 | 236 | 1.6 | 14.5 | 0.00 | 0.00 | 0.00 | 56 | 1011.2 |
| 20260903184240 | 27 | 18 | 3.2 | 16.1 | 0.00 | 0.00 | 0.00 | 58 | 1011.2 |
| 20260903183739 | 27 | 0 | 4.8 | 16.1 | 0.00 | 0.00 | 0.00 | 57 | 1011.2 |
| 20260903182740 | 27 | 340 | 4.8 | 12.9 | 0.00 | 0.00 | 0.00 | 59 | 1011.3 |
| 20260903182237 | 27 | 336 | 4.8 | 19.3 | 0.00 | 0.00 | 0.00 | 56 | 1011.2 |
| 20260903181738 | 27 | 146 | 6.4 | 19.3 | 0.00 | 0.00 | 0.00 | 59 | 1011.2 |
| 20260903181238 | 27 | 348 | 4.8 | 16.1 | 0.00 | 0.00 | 0.00 | 61 | 1011.1 |
| 20260903180238 | 27 | 252 | 3.2 | 12.9 | 0.00 | 0.00 | 0.00 | 58 | 1011.1 |
| 20260903175736 | 27 | 134 | 3.2 | 14.5 | 0.00 | 0.00 | 0.00 | 62 | 1011.1 |
| 20260903175234 | 27 | 329 | 4.8 | 14.5 | 0.00 | 0.00 | 0.00 | 60 | 1011.0 |
| 20260903173734 | 27 | 146 | 3.2 | 12.9 | 0.00 | 0.00 | 0.00 | 58 | 1010.9 |
| 20260903173227 | 27 | 0 | 1.6 | 9.7 | 0.00 | 0.00 | 0.00 | 62 | 1010.9 |
| 20260903172721 | 27 | 187 | 3.2 | 14.5 | 0.00 | 0.00 | 0.00 | 59 | 1010.9 |
| 20260903172216 | 27 | 140 | 1.6 | 14.5 | 0.00 | 0.00 | 0.00 | 61 | 1010.9 |
| 20260903171709 | 27 | 299 | 1.6 | 11.3 | 0.00 | 0.00 | 0.00 | 66 | 1010.9 |
| 20260903170152 | 27 | 192 | 3.2 | 16.1 | 0.00 | 0.00 | 0.00 | 63 | 1011.0 |
| 20260903165645 | 27 | 337 | 3.2 | 16.1 | 0.00 | 0.00 | 0.00 | 62 | 1011.1 |
| 20260903165140 | 27 | 0 | 4.8 | 17.7 | 0.00 | 0.00 | 0.00 | 63 | 1011.1 |
| 20260903164127 | 26 | 304 | 3.2 | 17.7 | 0.00 | 0.00 | 0.00 | 66 | 1011.1 |
| 20260903163621 | 26 | 186 | 1.6 | 12.9 | 0.00 | 0.00 | 0.00 | 68 | 1011.1 |
| 20260903163117 | 26 | 5 | 1.6 | 12.9 | 0.00 | 0.00 | 0.00 | 69 | 1011.2 |
| 20260903162609 | 26 | 355 | 3.2 | 12.9 | 0.00 | 0.00 | 0.00 | 67 | 1011.3 |
| 20260903162103 | 26 | 184 | 3.2 | 12.9 | 0.00 | 0.00 | 0.00 | 69 | 1011.2 |
| 20260903161557 | 26 | 340 | 1.6 | 9.7 | 0.00 | 0.00 | 0.00 | 67 | 1011.2 |
| 20260903161051 | 26 | 324 | 1.6 | 8.0 | 0.00 | 0.00 | 0.00 | 72 | 1011.3 |
| 20260903160545 | 26 | 5 | 1.6 | 12.9 | 0.00 | 0.00 | 0.00 | 73 | 1011.3 |
| 20260903160040 | 25 | 220 | 3.2 | 14.5 | 0.00 | 0.00 | 0.00 | 72 | 1011.3 |
| 20260903155533 | 25 | 338 | 4.8 | 17.7 | 0.00 | 0.00 | 0.00 | 70 | 1011.5 |
| 20260903155027 | 25 | 216 | 3.2 | 17.7 | 0.00 | 0.00 | 0.00 | 69 | 1011.5 |
| 20260903154521 | 25 | 300 | 1.6 | 11.3 | 0.00 | 0.00 | 0.00 | 76 | 1011.5 |
| 20260903153509 | 24 | 126 | 4.8 | 12.9 | 0.00 | 0.00 | 0.00 | 82 | 1011.6 |
| 20260903153004 | 23 | 338 | 6.4 | 12.9 | 0.00 | 0.00 | 0.00 | 84 | 1011.6 |
| 20260903151953 | 23 | 184 | 9.7 | 19.3 | 0.00 | 0.00 | 0.00 | 88 | 1011.6 |
| 20260903151445 | 23 | 190 | 9.7 | 19.3 | 0.00 | 0.00 | 0.00 | 88 | 1011.6 |
| 20260903150939 | 23 | 0 | 11.3 | 19.3 | 0.00 | 0.00 | 0.00 | 88 | 1011.6 |
| 20260903150436 | 23 | 158 | 11.3 | 19.3 | 0.00 | 0.00 | 0.00 | 88 | 1011.6 |
| 20260903145927 | 23 | 186 | 11.3 | 17.7 | 0.00 | 0.00 | 0.00 | 88 | 1011.6 |
| 20260903145421 | 23 | 180 | 9.7 | 16.1 | 0.00 | 0.00 | 0.00 | 88 | 1011.7 |
| 20260903144915 | 23 | 161 | 9.7 | 17.7 | 0.00 | 0.00 | 0.00 | 89 | 1011.8 |
| 20260903144409 | 23 | 144 | 9.7 | 17.7 | 0.00 | 0.00 | 0.00 | 88 | 1011.8 |
| 20260903143903 | 23 | 164 | 9.7 | 16.1 | 0.00 | 0.00 | 0.00 | 88 | 1011.7 |
| 20260903143358 | 22 | 153 | 11.3 | 17.7 | 0.00 | 0.00 | 0.00 | 88 | 1011.8 |
| 20260903142854 | 23 | 169 | 9.7 | 17.7 | 0.00 | 0.00 | 0.00 | 88 | 1011.7 |
| 20260903142353 | 23 | 155 | 6.4 | 14.5 | 0.00 | 0.00 | 0.00 | 88 | 1011.7 |
| 20260903141854 | 23 | 164 | 4.8 | 11.3 | 0.00 | 0.00 | 0.00 | 87 | 1011.8 |
| 20260903141353 | 22 | 166 | 4.8 | 11.3 | 0.00 | 0.00 | 0.00 | 87 | 1011.7 |
| 20260903140852 | 22 | 173 | 4.8 | 9.7 | 0.00 | 0.00 | 0.00 | 88 | 1011.7 |
| 20260903140351 | 22 | 194 | 3.2 | 9.7 | 0.00 | 0.00 | 0.00 | 89 | 1011.7 |
| 20260903135849 | 22 | 157 | 1.6 | 6.4 | 0.00 | 0.00 | 0.00 | 90 | 1011.8 |
| 20260903135349 | 22 | 205 | 0.0 | 6.4 | 0.00 | 0.00 | 0.00 | 91 | 1011.8 |
| 20260903134849 | 21 | 213 | 0.0 | 1.6 | 0.00 | 0.00 | 0.00 | 91 | 1011.8 |